When you browse on this site, cookies collect data to enhance your experience and personalize the content and advertising you see.
Visit our Privacy Policy to learn more. By continuing to use the site, you agree to this use of cookies and data.
  • In Deutschland
  • Länderverzeichnis
  • Für 7 Tage
  • Wassertemperatur
  • Wetterkarte
  • Widgets
  • user-avatar
    Anmelden

    Stündliche Wetter Ganja

    Heute, 22 August, Donnerstag

    Zeit Temperatur Niederschläge Wind Luftdruck Luftfeuchtigkeit
    00:00 +26°C° 0 mm 2 m/S 725 mmHg 32%
    01:00 +25°C° 0 mm 2 m/S 725 mmHg 34%
    02:00 +24°C° 0 mm 2 m/S 725 mmHg 35%
    03:00 +23°C° 0 mm 1 m/S 725 mmHg 37%
    04:00 +24°C° 0 mm 1 m/S 725 mmHg 37%
    05:00 +24°C° 0 mm 1 m/S 725 mmHg 38%
    06:00 +24°C° 0 mm 1 m/S 725 mmHg 38%
    07:00 +26°C° 0 mm 1 m/S 725 mmHg 34%
    08:00 +28°C° 0 mm 2 m/S 725 mmHg 31%
    09:00 +30°C° 0 mm 2 m/S 724 mmHg 27%
    10:00 +33°C° 0 mm 3 m/S 724 mmHg 24%
    11:00 +35°C° 0 mm 4 m/S 724 mmHg 21%
    12:00 +36°C° 0 mm 4 m/S 723 mmHg 19%
    13:00 +37°C° 0 mm 5 m/S 723 mmHg 18%
    14:00 +39°C° 0 mm 6 m/S 723 mmHg 17%
    15:00 +39°C° 0 mm 6 m/S 723 mmHg 16%
    16:00 +38°C° 0 mm 6 m/S 722 mmHg 17%
    17:00 +36°C° 0 mm 5 m/S 722 mmHg 18%
    18:00 +35°C° 0 mm 5 m/S 722 mmHg 20%
    19:00 +33°C° 0 mm 5 m/S 723 mmHg 21%
    20:00 +32°C° 0 mm 5 m/S 723 mmHg 22%
    21:00 +29°C° 0 mm 5 m/S 724 mmHg 24%
    22:00 +28°C° 0 mm 5 m/S 724 mmHg 25%
    23:00 +27°C° 0 mm 4 m/S 724 mmHg 26%

    Morgen, 23 August, Freitag

    Zeit Temperatur Niederschläge Wind Luftdruck Luftfeuchtigkeit
    00:00 +27°C° 0 mm 3 m/S 724 mmHg 27%
    01:00 +26°C° 0 mm 3 m/S 724 mmHg 29%
    02:00 +25°C° 0 mm 3 m/S 724 mmHg 30%
    03:00 +24°C° 0 mm 2 m/S 724 mmHg 32%
    04:00 +24°C° 0 mm 2 m/S 724 mmHg 33%
    05:00 +24°C° 0 mm 2 m/S 724 mmHg 34%
    06:00 +23°C° 0 mm 2 m/S 724 mmHg 35%
    07:00 +26°C° 0 mm 2 m/S 724 mmHg 32%
    08:00 +28°C° 0 mm 2 m/S 724 mmHg 29%
    09:00 +30°C° 0 mm 3 m/S 725 mmHg 26%
    10:00 +33°C° 0 mm 4 m/S 724 mmHg 23%
    11:00 +35°C° 0 mm 6 m/S 724 mmHg 21%
    12:00 +39°C° 0 mm 8 m/S 724 mmHg 18%
    13:00 +39°C° 0 mm 8 m/S 724 mmHg 18%
    14:00 +39°C° 0 mm 8 m/S 723 mmHg 18%
    15:00 +40°C° 0 mm 9 m/S 723 mmHg 18%
    16:00 +39°C° 0 mm 8 m/S 723 mmHg 20%
    17:00 +38°C° 0 mm 7 m/S 723 mmHg 22%
    18:00 +35°C° 0 mm 6 m/S 723 mmHg 24%
    19:00 +34°C° 0 mm 6 m/S 723 mmHg 25%
    20:00 +32°C° 0 mm 6 m/S 724 mmHg 26%
    21:00 +30°C° 0 mm 6 m/S 724 mmHg 27%
    22:00 +29°C° 0 mm 5 m/S 724 mmHg 28%
    23:00 +28°C° 0 mm 4 m/S 724 mmHg 28%

    übermorgen, 24 August, Samstag

    Zeit Temperatur Niederschläge Wind Luftdruck Luftfeuchtigkeit
    00:00 +27°C° 0 mm 4 m/S 724 mmHg 29%
    01:00 +27°C° 0 mm 3 m/S 724 mmHg 30%
    02:00 +26°C° 0 mm 3 m/S 724 mmHg 31%
    03:00 +25°C° 0 mm 3 m/S 724 mmHg 32%
    04:00 +25°C° 0 mm 2 m/S 724 mmHg 35%
    05:00 +25°C° 0 mm 2 m/S 724 mmHg 38%
    06:00 +24°C° 0 mm 1 m/S 724 mmHg 41%
    07:00 +26°C° 0 mm 2 m/S 724 mmHg 37%
    08:00 +29°C° 0 mm 2 m/S 725 mmHg 34%
    09:00 +31°C° 0 mm 2 m/S 725 mmHg 30%
    10:00 +33°C° 0 mm 3 m/S 725 mmHg 27%
    11:00 +35°C° 0 mm 4 m/S 724 mmHg 25%
    12:00 +37°C° 0 mm 5 m/S 724 mmHg 22%
    13:00 +39°C° 0 mm 6 m/S 724 mmHg 21%
    14:00 +40°C° 0 mm 6 m/S 724 mmHg 20%
    15:00 +40°C° 0 mm 7 m/S 724 mmHg 19%
    16:00 +39°C° 0 mm 6 m/S 724 mmHg 21%
    17:00 +37°C° 0 mm 5 m/S 724 mmHg 23%
    18:00 +36°C° 0 mm 5 m/S 724 mmHg 25%
    19:00 +34°C° 0 mm 5 m/S 724 mmHg 27%
    20:00 +33°C° 0 mm 6 m/S 725 mmHg 29%
    21:00 +30°C° 0 mm 6 m/S 725 mmHg 30%
    22:00 +29°C° 0.1 mm 5 m/S 725 mmHg 32%
    23:00 +28°C° 0.1 mm 4 m/S 725 mmHg 33%

    25 August, Sonntag

    Zeit Temperatur Niederschläge Wind Luftdruck Luftfeuchtigkeit
    00:00 +28°C° 0.1 mm 3 m/S 726 mmHg 34%
    01:00 +27°C° 0 mm 3 m/S 725 mmHg 36%
    02:00 +26°C° 0 mm 2 m/S 725 mmHg 38%
    03:00 +25°C° 0 mm 2 m/S 725 mmHg 41%
    04:00 +25°C° 0 mm 2 m/S 725 mmHg 41%
    05:00 +25°C° 0 mm 2 m/S 725 mmHg 41%
    06:00 +25°C° 0 mm 1 m/S 725 mmHg 41%
    07:00 +27°C° 0 mm 2 m/S 725 mmHg 39%
    08:00 +29°C° 0 mm 2 m/S 725 mmHg 37%
    09:00 +30°C° 0 mm 3 m/S 725 mmHg 35%
    10:00 +33°C° 0.1 mm 3 m/S 725 mmHg 32%
    11:00 +34°C° 0.1 mm 2 m/S 725 mmHg 29%
    12:00 +35°C° 0.1 mm 2 m/S 724 mmHg 27%
    13:00 +36°C° 0.2 mm 3 m/S 724 mmHg 25%
    14:00 +36°C° 0.2 mm 3 m/S 724 mmHg 24%
    15:00 +37°C° 0.2 mm 4 m/S 723 mmHg 23%
    16:00 +36°C° 0 mm 3 m/S 723 mmHg 26%
    17:00 +35°C° 0 mm 3 m/S 723 mmHg 28%
    18:00 +34°C° 0 mm 2 m/S 723 mmHg 30%
    19:00 +33°C° 0 mm 3 m/S 724 mmHg 31%
    20:00 +30°C° 0 mm 4 m/S 724 mmHg 33%
    21:00 +29°C° 0 mm 5 m/S 724 mmHg 35%
    22:00 +28°C° 0 mm 4 m/S 725 mmHg 36%
    23:00 +27°C° 0 mm 3 m/S 725 mmHg 38%

    26 August, Montag

    Zeit Temperatur Niederschläge Wind Luftdruck Luftfeuchtigkeit
    00:00 +26°C° 0 mm 3 m/S 725 mmHg 40%
    01:00 +26°C° 0 mm 2 m/S 725 mmHg 43%
    02:00 +25°C° 0 mm 1 m/S 724 mmHg 45%
    03:00 +24°C° 0 mm 1 m/S 724 mmHg 48%
    04:00 +24°C° 0.1 mm 1 m/S 724 mmHg 50%
    05:00 +24°C° 0.1 mm 1 m/S 724 mmHg 52%
    06:00 +24°C° 0.1 mm 1 m/S 725 mmHg 53%
    07:00 +26°C° 0.2 mm 2 m/S 725 mmHg 50%
    08:00 +27°C° 0.2 mm 2 m/S 725 mmHg 46%
    09:00 +28°C° 0.2 mm 2 m/S 725 mmHg 43%
    10:00 +30°C° 0.2 mm 2 m/S 724 mmHg 41%
    11:00 +31°C° 0.2 mm 2 m/S 724 mmHg 39%
    12:00 +32°C° 0.2 mm 2 m/S 724 mmHg 36%
    13:00 +32°C° 0.4 mm 2 m/S 724 mmHg 36%
    14:00 +32°C° 0.4 mm 2 m/S 723 mmHg 35%
    15:00 +34°C° 0.4 mm 2 m/S 723 mmHg 35%
    16:00 +32°C° 0.3 mm 2 m/S 723 mmHg 36%
    17:00 +32°C° 0.3 mm 2 m/S 724 mmHg 37%
    18:00 +31°C° 0.3 mm 3 m/S 724 mmHg 38%
    19:00 +30°C° 0.3 mm 3 m/S 725 mmHg 42%
    20:00 +28°C° 0.3 mm 3 m/S 725 mmHg 46%
    21:00 +27°C° 0.3 mm 3 m/S 726 mmHg 50%
    22:00 +26°C° 0.2 mm 3 m/S 726 mmHg 51%
    23:00 +26°C° 0.2 mm 3 m/S 726 mmHg 52%

    27 August, Dienstag

    Zeit Temperatur Niederschläge Wind Luftdruck Luftfeuchtigkeit
    00:00 +26°C° 0.2 mm 2 m/S 726 mmHg 52%
    01:00 +25°C° 0 mm 2 m/S 726 mmHg 54%
    02:00 +24°C° 0 mm 2 m/S 726 mmHg 55%
    03:00 +23°C° 0 mm 1 m/S 726 mmHg 57%
    04:00 +23°C° 0 mm 1 m/S 726 mmHg 56%
    05:00 +23°C° 0 mm 1 m/S 726 mmHg 56%
    06:00 +23°C° 0 mm 1 m/S 726 mmHg 56%
    07:00 +25°C° 0 mm 1 m/S 727 mmHg 51%
    08:00 +26°C° 0 mm 2 m/S 727 mmHg 46%
    09:00 +28°C° 0 mm 2 m/S 727 mmHg 42%
    10:00 +30°C° 0 mm 3 m/S 727 mmHg 37%
    11:00 +31°C° 0 mm 3 m/S 726 mmHg 33%
    12:00 +34°C° 0 mm 4 m/S 726 mmHg 29%
    13:00 +34°C° 0 mm 5 m/S 726 mmHg 27%
    14:00 +35°C° 0 mm 6 m/S 726 mmHg 25%
    15:00 +35°C° 0 mm 7 m/S 725 mmHg 24%
    16:00 +34°C° 0.1 mm 7 m/S 726 mmHg 27%
    17:00 +33°C° 0.1 mm 6 m/S 726 mmHg 29%
    18:00 +32°C° 0.1 mm 6 m/S 726 mmHg 32%
    19:00 +30°C° 0 mm 6 m/S 726 mmHg 34%
    20:00 +29°C° 0 mm 6 m/S 727 mmHg 36%
    21:00 +28°C° 0 mm 6 m/S 727 mmHg 38%
    22:00 +27°C° 0 mm 6 m/S 728 mmHg 38%
    23:00 +27°C° 0 mm 5 m/S 728 mmHg 39%
    Mehr zeigen